NOAA 16 DEB, 41516

Orbit data source: Space-Track

NOAA 16 DEB, 41516 is space debris in SSO originally from a launch on Thu, 21 Sep 2000 UTC launched from the Air Force Western Test Range (AFWTR). Debris objects in space refer to the collection of defunct objects orbiting the Earth. Examples of debris include non-operational satellites, rocket bodies, and fragments generated from explosions, collisions, or faulty payload assembly.

Loading next visibility...
Identifier
41516, 2000-055MQ
Orbit
SSO
Country
Flag of USUS
Related business
Manufacturer
Unknown
Mission
Spacecraft
Bus & Motor
Unknown
Mass
Unknown
Launch date (UTC)
2000-09-21 (25 years ago)
Launch vehicle
Unknown
Launch site
Air Force Western Test Range (AFWTR)
Object type
Payload
Rocket body
Debris
Shape & HBR
Unknown shape, 0.1 m
Radar Cross Section
Small (<0.1 m²)

Expand to show TLE details & history
Last TLE update: 18 hours ago

TLE from 18 hours ago
0 NOAA 16 DEB
1 41516U 00055MQ  25300.70248666  .00005700  00000-0  20759-2 0  9993
2 41516  98.6805  23.6962 0014403 122.7097 237.5478 14.33463836493309
Epoch: 2025-10-27T16:51Z
TLE epoch observation values (Epoch: 2025-10-27T16:51:34.847Z)
Latitude
-0°
Longitude
94.50047°
Altitude
788.654 km
Speed
7.457 km/s
True Right ascension
01h 34m 47s
True Declination
0° 00' 00"
Sunlit
Object was in full shadow at epoch
Visualization orbit readout
Latitude
Unknown
Longitude
Unknown
Altitude
Unknown
Speed
Unknown
Apparent Right ascension
Unknown
Apparent Declination
Unknown
Sunlit
N/A
Visualization observer readout
Local Sidereal Time
05:55:02
Azimuth
Unknown
Elevation
Unknown
Doppler factor
Unknown
Orbital elements
Apogee altitude
787.621 km
Perigee altitude
767.009 km
Semi-major axis
7,155.452 km
Eccentricity
0.00144
Inclination
98.6805°
RAAN
23.6962°
Arg. of periapsis
122.7097°
True anomaly
237.40866°
Mean anomaly
237.5478°
Eccentric anomaly
237.47822°
Mean motion
3.58581 °/min
Orbital period
100.4 mins
BSTAR
0.0020759
Loading maneuver chart data...
Computing Atmospheric mass density...
Loading historical data...
Loading historical data...
Loading historical data...
Loading historical data...
Loading historical data...
Loading historical data...
Loading historical data...

Documentation

Showing up to 5 results
|